Weather in Asmara

Eritrea     15°19′48″N   38°55′56″E
temp.,
°C
wind,
m/s
gust,
m/s
humid.,
%
clouds,
%
prec.,
mm/h
press.,
hPa
HPBL,
m
1 july, fri
fri100:00+18w68736 0.0 1014358
03:00+18w46788 0.2 1013308
06:00+17wsw4583100 0.0 1014200
09:00+22wsw335399 0.2 1014521
12:00+25wnw353696 0.2 10121934
15:00+26n353438 0.8 10102333
18:00+24nnw554617 0.3 10111515
21:00+20w566485 1.0 1014301
2 july, sat
sat200:00+19w456971 0.2 1014202
03:00+18w457299 0.3 1013237
06:00+17wsw458099 0.0 1014165
09:00+22wsw335250 0.4 1014551
12:00+26nw253255 0.1 10122750
15:00+24wnw454597 0.9 10111373
18:00+23nw5551100 1.4 1011863
21:00+20w4568100 2.1 1014287
3 july, sun
sun300:00+20w5865100 0.4 1014382
03:00+19w467474 0.4 1013306
06:00+18wsw458149 0.3 1013131
09:00+22wsw455379 0.9 1013692
12:00+25w654098 0.4 10121976
15:00+21wnw6761100 4.1 1010881
18:00+21w5764100 11.4 1012593
21:00+19wsw5971100 12.7 1014469
4 july, mon
mon400:00+19wsw477175 0.9 1013237
03:00+18wsw447793 1.9 1012126
06:00+17sw557979 0.4 1014185
09:00+20sw456578 1.3 1014419
12:00+21w886415 0.6 1014734
15:00+22w65607 1.8 1013855
18:00+20w55645 1.3 1013526
21:00+18wnw57777 2.6 1015477
5 july, tue
tue500:00+17w678122 0.0 1016395
03:00+17w568131 0.0 1015397
06:00+17wsw568026 0.3 1016394
09:00+18wsw55708 0.3 1017468
12:00+23w23491 0.0 10141492
15:00+24wnw344171 1.4 10112048
18:00+22nw555365 0.9 10121321
21:00+20wnw3362100 1.6 1015201